Voltar ao catálogo

FENGYUN 1C DEB

AtivoSSO
NORAD 30023·DEBRIS·🇨🇳 China

Lançado May 10, 1999 de Taiyuan Satellite Launch Center

Loading…

Próximas Passagens (próximas 24 horas)

TLE

AtualizadoSource: Space-Track

Época: Sep 14, 2026, 20:32 UTC

1 30023U 99025MY  26257.85559635  .00000426  00000-0  25489-3 0  9994
2 30023  99.2766 106.2533 0046822  13.1230   2.2316 14.12226560 10937

Acompanhe FENGYUN 1C DEB em tempo real com AllMySat

Download on the App Store